Location: Mladá Boleslav
(50.4134°N, 14.9084°E)
Time: 14:20:35
(UTC+01:00)

Envisat - Visible Passes

Search period start: 27 February 2024 00:00
Search period end: 08 March 2024 00:00
Orbit: 762 x 764 km, 98.3° (Epoch: 26 February)

Date Brightness Start Highest point End Pass type
(mag) Time Alt. Az. Time Alt. Az. Time Alt. Az.
27 Feb 4.2 03:15:21 10° NNE 03:18:52 40° NE 03:18:52 40° NE visible
27 Feb 4.0 04:54:53 10° N 04:59:02 26° WNW 04:59:02 26° WNW visible
28 Feb 5.1 02:38:29 10° NE 02:41:16 23° ENE 02:41:16 23° ENE visible
28 Feb 3.4 04:17:08 10° N 04:21:27 46° NW 04:21:27 46° NW visible
29 Feb 5.8 02:02:31 10° NE 02:03:40 12° ENE 02:03:40 12° ENE visible
29 Feb 3.3 03:39:41 10° NNE 03:43:51 60° NNE 03:43:51 60° NNE visible
29 Feb 4.5 05:19:50 10° NNW 05:23:09 18° NW 05:24:01 17° WNW visible
01 Mar 4.3 03:02:33 10° NNE 03:06:15 37° ENE 03:06:15 37° ENE visible
01 Mar 3.8 04:41:47 10° N 04:46:15 32° WNW 04:46:26 32° WNW visible
02 Mar 5.2 02:25:53 10° NE 02:28:40 20° ENE 02:28:40 20° ENE visible
02 Mar 3.1 04:04:09 10° N 04:08:50 59° NW 04:08:50 59° NW visible
02 Mar 4.9 05:45:17 10° NNW 05:47:10 12° NW 05:49:00 10° WNW visible
03 Mar 5.9 01:51:02 10° ENE 01:51:04 10° ENE 01:51:04 10° ENE visible
03 Mar 3.4 03:26:48 10° NNE 03:31:15 61° ENE 03:31:15 61° ENE visible
03 Mar 4.2 05:06:37 10° N 05:10:24 22° WNW 05:11:25 20° WNW visible
04 Mar 4.5 02:49:47 10° NNE 02:53:39 32° ENE 02:53:39 32° ENE visible
04 Mar 3.4 04:28:44 10° N 04:33:27 39° WNW 04:33:49 39° WNW visible
05 Mar 5.4 02:13:23 10° NE 02:16:03 17° ENE 02:16:03 17° ENE visible
05 Mar 2.8 03:51:12 10° NNE 03:56:13 76° WNW 03:56:13 76° WNW visible
05 Mar 4.7 05:31:44 10° NNW 05:34:28 15° NW 05:36:24 12° WNW visible
06 Mar 3.6 03:13:57 10° NNE 03:18:38 53° E 03:18:38 53° E visible
06 Mar 4.0 04:53:28 10° N 04:57:38 26° WNW 04:58:48 24° W visible
07 Mar 4.8 02:37:05 10° NE 02:41:02 27° E 02:41:02 27° E visible
07 Mar 3.2 04:15:43 10° N 04:20:36 49° WNW 04:21:13 46° W visible
